Tracking 30160 objects as of 13-Feb-2025
HD Live streaming from Space Station
objects crossing your sky now

STARLINK-32706

Track STARLINK-32706 now!
10-day predictions
STARLINK-32706 is classified as:


NORAD ID: 62308
Int'l Code: 2024-239H
Perigee: 453.4 km
Apogee: 455.2 km
Inclination: 53.2 °
Period: 93.5 minutes
Semi major axis: 6825 km
RCS: Unknown
Launch date: December 13, 2024
Source: United States (US)
Launch site: AIR FORCE WESTERN TEST RANGE (AFWTR)
Your satellite tracking list
Your tracking list is empty




NASA's NSSDC Master Catalog

Two Line Element Set (TLE):
1 62308U 24239H   25044.46666473  .00011693  00000-0  30167-3 0  9996
2 62308  53.1566 205.2664 0001282  95.7416 264.3735 15.39638198  9740
Source of the keplerian elements: AFSPC